Regional Weather Roundup
Issued by NWS

Home | Current Version | Previous Version | Text Only | Print | Product List | Glossary Off
Versions: 1 2 3 4 5 6 7 8 9 10 11 12 13 14 15 16 17 18 19 20 21 22 23 24 25 26 27 28 29 30 31 32 33 34 35 36 37 38 39 40 41 42 43 44 45 46 47 48 49 50

000
ASUS45 KPSR 272310
RWRAZ

ARIZONA REGIONAL HOURLY WEATHER ROUNDUP
NATIONAL WEATHER SERVICE PHOENIX AZ
400 PM MST FRI MAR 27 2015

NOTE: FAIR INDICATES FEW OR NO CLOUDS BELOW 12,000 FEET WITH NO
SIGNIFICANT WEATHER AND/OR OBSTRUCTIONS TO VISIBILITY.

AZZ001>003-036-280000-
NORTHWEST ARIZONA

CITY           SKY/WX    TMP DP  RH WIND       PRES   REMARKS
BULLHEAD CITY  SUNNY     91  19   7 S6        29.99F
KINGMAN        SUNNY     82  19   9 W9G18     30.13F
$$

AZZ004>008-015-016-018-280000-
NORTH CENTRAL ARIZONA

CITY           SKY/WX    TMP DP  RH WIND       PRES   REMARKS
GRAND CANYON   SUNNY     70   7   8 VRB5      30.28F
WILLIAMS       SUNNY     70  14  11 W13G20    30.35F
PRESCOTT       SUNNY     78  22  12 W14G22    30.20F
FLAGSTAFF      SUNNY     69   5   8 SW20      30.30S
PAYSON         SUNNY     77  19  11 W9        30.22F
PAGE           SUNNY     76  23  14 NE6       30.14F
$$

AZZ009>014-017-280000-
NORTHEAST ARIZONA

CITY           SKY/WX    TMP DP  RH WIND       PRES   REMARKS
WINSLOW        SUNNY     79  12   8 VRB3      30.17F
SAINT JOHNS    SUNNY     75   5   6 W10G17    30.21F
WINDOW ROCK    SUNNY     72  10   9 NW14G20   30.25F
SHOW LOW       SUNNY     68   3   8 CALM      30.28F
$$

AZZ023-280000-
GREATER PHOENIX AREA

CITY           SKY/WX    TMP DP  RH WIND       PRES   REMARKS
PHOENIX        SUNNY     92  15   6 NW7       29.97F
BUCKEYE        SUNNY     90  23   9 S6        29.99F
GLENDALE       SUNNY     91  16   6 SW5       30.00F
LUKE AFB       SUNNY     91  19   7 CALM      29.97F
DEER VALLEY    SUNNY     90  14   6 CALM      30.00F
SCOTTSDALE     SUNNY     89  16   7 SW3       30.01F
MESA-FALCON    SUNNY     90   9   5 W6        30.00F
MESA-GATEWAY   SUNNY     90  23   9 W6        30.02F
CHANDLER       SUNNY     91  19   7 S7        29.99F
$$

AZZ027-028-280000-
SOUTHWEST MARICOPA COUNTY AND PINAL COUNTY

CITY           SKY/WX    TMP DP  RH WIND       PRES   REMARKS
CASA GRANDE    SUNNY     91  28  10 CALM      29.98F
$$

AZZ503-504-507>509-280000-
SOUTHEAST ARIZONA

CITY           SKY/WX    TMP DP  RH WIND       PRES   REMARKS
TUCSON         SUNNY     92   4   3 CALM      30.05F
DAVIS-MONTHAN  SUNNY     89  10   5 W7        30.04F
RYAN FIELD       N/A     91  14   6 SW8       30.04F
NOGALES        SUNNY     86   8   5 VRB3      30.11F
SIERRA VISTA   SUNNY     81  10   7 VRB2      30.17F
DOUGLAS        SUNNY     81  13   7 VRB3      30.14F
SAFFORD        SUNNY     85  13   7 W9        30.06F
$$

AZZ020-021-025-026-031-280000-
SOUTHWEST ARIZONA

CITY           SKY/WX    TMP DP  RH WIND       PRES   REMARKS
YUMA           SUNNY     95  25   8 S6        29.94F
$$

CAZ031-033-041-043-047-048-061-280000-
SOUTHERN CALIFORNIA

CITY           SKY/WX    TMP DP  RH WIND       PRES   REMARKS
DOWNTOWN L.A.  SUNNY     81  49  32 W5        30.00F
L.A. AIRPORT   SUNNY     71  57  61 W15       30.02F
SAN DIEGO      SUNNY     77  56  48 NW10      30.02S
BURBANK        SUNNY     89  35  14 S12       30.00F
ONTARIO        SUNNY     92  31  11 W15       30.00F
RIVERSIDE      SUNNY     92  32  12 W10       29.99F
PALM SPRINGS   SUNNY     96  24   7 VRB5      29.96F
EL CENTRO NAS  SUNNY     93  30  10 SE6       29.93F
IMPERIAL       SUNNY     94  30  10 VRB3      29.93F
BLYTHE         SUNNY     93  27   9 VRB3      29.96F
NEEDLES        SUNNY     93  17   6 E6        29.98F
$$

NVZ020-UTZ003-280000-
SOUTHERN NEVADA-UTAH

CITY           SKY/WX    TMP DP  RH WIND       PRES   REMARKS
LAS VEGAS      SUNNY     87  20   8 SE6       30.01F
SALT LAKE CITY SUNNY     70  32  24 CALM      30.17F
$$

NMZ009-TXZ055-280000-
NEW MEXICO-WEST TEXAS

CITY           SKY/WX    TMP DP  RH WIND       PRES   REMARKS
ALBUQUERQUE    MOSUNNY   76  16  10 W14G23    30.14F
EL PASO        SUNNY     79  19  10 SW7       30.13F
$$


........................KEY........................
SKY/WX - SKY CONDITION/WEATHER
TMP    - TEMPERATURE IN FAHRENHEIT
DP     - DEW POINT IN FAHRENHEIT
RH     - RELATIVE HUMIDITY IN PERCENT
WIND   - DIRECTION AND SPEED IN MILES PER HOUR (MPH)
VRB    - VARIABLE WIND DIRECTION
PRES   - MEAN SEA LEVEL PRESSURE IN INCHES OF MERCURY
         F - FALLING PRESSURE   R - RISING PRESSURE
         S - STEADY PRESSURE
VSB    - VISIBILITY IN MILES
HX     - HEAT INDEX IN FAHRENHEIT
WCI    - WIND CHILL INDEX IN FAHRENHEIT
TC     - TEMPERATURE IN CELSIUS WHICH IS ALSO KNOWN AS
         TEMPERATURE IN CENTIGRADE
AFB    - AIR FORCE BASE
         LUKE AFB IS LUKE AIR FORCE BASE
         DAVIS-MONTHAN IS DAVIS-MONTHAN AIR FORCE BASE
NAS    - NAVAL AIR STATION
         EL CENTRO NAS IS EL CENTRO NAVAL AIR STATION
N/A    - NOT AVAILABLE




USA.gov is the U.S. government's official web portal to all federal, state and local government web resources and services.